Weather History for KAXX - May, 2013

Change the Weather History Date:

Tuesday, May 7, 2013

  Actual Average (KSKX) Record (KSKX)
Temperature  
Mean Temperature 46 °F -  
Max Temperature 60 °F 67 °F 78 °F (2000)
Min Temperature 32 °F 31 °F 24 °F (1999)
Degree Days  
Heating Degree Days 19    
Moisture  
Dew Point 28 °F    
Average Humidity 58    
Maximum Humidity 94    
Minimum Humidity 24    
Precipitation  
Precipitation 0.00 in - - ()
Sea Level Pressure  
Sea Level Pressure 30.13 in    
Wind  
Wind Speed 7 mph (WSW)    
Max Wind Speed 17 mph    
Max Gust Speed 25 mph    
Visibility 10 miles    
Events Rain    
Averages and records for this station are not official NWS values.
T = Trace of Precipitation, MM = Missing Value Source: NWS Daily Summary

Daily Weather History Graph

Daily Weather History Graph

Search for Another Location

Airport or City:

Trip Planner

Search our weather history database for the weather conditions in past years. The results will help you decide how hot, cold, wet, or windy it might be!

Date:

Astronomy

May. 07, 2013 Rise Set
Actual Time 6:01 AM MDT 7:54 PM MDT
Civil Twilight 5:33 AM MDT 8:22 PM MDT
Nautical Twilight 4:59 AM MDT 8:56 PM MDT
Astronomical Twilight 4:22 AM MDT 9:33 PM MDT
Moon 4:33 AM MDT (5/7) 5:59 PM MDT (5/7)
Length of Visible Light 14h 49m
Length of Day
13h 53m
Waning Crescent, 5% of the Moon is Illuminated
May 7
Waning Crescent
May 9
New
May 17
First Quarter
May 24
Full
May 31
Last Quarter

Hourly Weather History & Observations

Time (MDT) Temp. Windchill Dew Point Humidity Pressure Visibility Wind Dir Wind Speed Gust Speed Precip Events Conditions
12:15 AM 35.6 °F 27.5 °F 33.8 °F 93% 30.20 in 5.0 mi SW 11.5 mph - N/A Rain Light Rain
12:35 AM 36.5 °F 30.3 °F 33.3 °F 88% 30.18 in 10.0 mi South 8.1 mph - N/A   Overcast
12:55 AM 35.6 °F 27.5 °F 32.9 °F 90% 30.18 in 10.0 mi SSW 11.5 mph - N/A   Scattered Clouds
1:15 AM 35.2 °F - 32.0 °F 88% 30.16 in 10.0 mi Calm Calm - N/A   Scattered Clouds
1:35 AM 35.6 °F 31.7 °F 32.5 °F 89% 30.16 in 10.0 mi SSE 4.6 mph - N/A   Clear
1:55 AM 35.2 °F 28.8 °F 32.0 °F 88% 30.15 in 10.0 mi SE 8.1 mph - N/A   Clear
2:15 AM 34.2 °F - 31.8 °F 91% 30.16 in 10.0 mi Calm Calm - N/A   Clear
2:35 AM 35.8 °F - 32.0 °F 86% 30.16 in 10.0 mi Calm Calm - N/A   Clear
2:55 AM 32.0 °F - 30.0 °F 92% 30.15 in 10.0 mi Calm Calm - N/A   Clear
3:15 AM 32.7 °F - 31.1 °F 94% 30.16 in 10.0 mi Calm Calm - N/A   Clear
3:35 AM 33.4 °F - 30.7 °F 90% 30.16 in 10.0 mi Calm Calm - N/A   Clear
4:15 AM 32.4 °F - 30.0 °F 91% 30.14 in 10.0 mi Calm Calm - N/A   Clear
4:35 AM 35.1 °F - 31.1 °F 85% 30.13 in 10.0 mi Calm Calm - N/A   Clear
4:55 AM 35.6 °F - 30.9 °F 83% 30.13 in 10.0 mi Calm Calm - N/A   Clear
5:15 AM 36.0 °F - 30.7 °F 81% 30.13 in 10.0 mi Calm Calm - N/A   Clear
5:35 AM 38.5 °F 36.1 °F 31.3 °F 75% 30.13 in 10.0 mi WSW 3.5 mph - N/A   Clear
5:55 AM 38.5 °F 36.1 °F 31.1 °F 75% 30.13 in 10.0 mi SSW 3.5 mph - N/A   Clear
6:15 AM 38.7 °F - 31.1 °F 74% 30.13 in 10.0 mi Calm Calm - N/A   Clear
6:35 AM 37.4 °F - 31.1 °F 78% 30.13 in 10.0 mi Calm Calm - N/A   Clear
6:55 AM 39.4 °F 32.3 °F 32.0 °F 75% 30.14 in 10.0 mi SW 11.5 mph 17.3 mph N/A   Clear
7:15 AM 40.6 °F 37.5 °F 32.0 °F 71% 30.14 in 10.0 mi SSW 4.6 mph - N/A   Clear
7:35 AM 42.1 °F 40.2 °F 32.0 °F 67% 30.15 in 10.0 mi South 3.5 mph - N/A   Clear
7:55 AM 42.8 °F 38.0 °F 32.0 °F 66% 30.15 in 10.0 mi West 8.1 mph - N/A   Clear
8:15 AM 44.1 °F 41.5 °F 32.2 °F 63% 30.16 in 10.0 mi South 4.6 mph - N/A   Clear
8:35 AM 45.0 °F 42.6 °F 32.2 °F 61% 30.16 in 10.0 mi WNW 4.6 mph - N/A   Clear
8:55 AM 46.0 °F 43.9 °F 32.5 °F 59% 30.17 in 10.0 mi West 4.6 mph - N/A   Clear
9:15 AM 46.4 °F 42.9 °F 30.9 °F 55% 30.17 in 10.0 mi SW 6.9 mph 18.4 mph N/A   Clear
9:35 AM 47.3 °F - 30.6 °F 52% 30.17 in 10.0 mi SW 12.7 mph 24.2 mph N/A   Clear
9:55 AM 48.2 °F - 30.7 °F 51% 30.17 in 10.0 mi West 13.8 mph 19.6 mph N/A   Clear
10:15 AM 48.4 °F - 30.6 °F 50% 30.17 in 10.0 mi West 17.3 mph 21.9 mph N/A   Clear
10:35 AM 49.3 °F - 29.7 °F 47% 30.17 in 10.0 mi West 17.3 mph 23.0 mph N/A   Clear
10:55 AM 50.7 °F - 30.6 °F 46% 30.17 in 10.0 mi WSW 16.1 mph 23.0 mph N/A   Clear
11:15 AM 51.1 °F - 29.7 °F 44% 30.17 in 10.0 mi WSW 10.4 mph - N/A   Clear
11:35 AM 51.3 °F - 29.3 °F 43% 30.17 in 10.0 mi West 9.2 mph 19.6 mph N/A   Clear
11:55 AM 51.6 °F - 28.6 °F 41% 30.17 in 10.0 mi WNW 11.5 mph - N/A   Scattered Clouds
12:15 PM 51.4 °F - 28.4 °F 41% 30.16 in 10.0 mi West 11.5 mph 18.4 mph N/A   Scattered Clouds
12:35 PM 52.3 °F - 29.3 °F 41% 30.15 in 10.0 mi West 16.1 mph 23.0 mph N/A   Scattered Clouds
12:55 PM 54.0 °F - 28.0 °F 37% 30.14 in 10.0 mi West 11.5 mph 21.9 mph N/A   Scattered Clouds
1:15 PM 56.3 °F - 23.2 °F 28% 30.14 in 10.0 mi SW 16.1 mph 24.2 mph N/A   Clear
1:35 PM 57.6 °F - 24.6 °F 28% 30.14 in 10.0 mi SW 16.1 mph 21.9 mph N/A   Clear
1:55 PM 56.8 °F - 23.9 °F 28% 30.14 in 10.0 mi SSW 12.7 mph 25.3 mph N/A   Clear
2:15 PM 57.7 °F - 24.4 °F 28% 30.13 in 10.0 mi SSW 11.5 mph 20.7 mph N/A   Scattered Clouds
2:35 PM 57.6 °F - 24.6 °F 28% 30.12 in 10.0 mi West 8.1 mph 17.3 mph N/A   Scattered Clouds
2:55 PM 58.3 °F - 25.2 °F 28% 30.12 in 10.0 mi West 11.5 mph 19.6 mph N/A   Mostly Cloudy
3:15 PM 58.8 °F - 23.9 °F 26% 30.11 in 10.0 mi South 9.2 mph - N/A   Scattered Clouds
3:35 PM 57.0 °F - 23.7 °F 28% 30.10 in 10.0 mi SSW 9.2 mph - N/A   Scattered Clouds
3:55 PM 60.1 °F - 23.4 °F 24% 30.09 in 10.0 mi West 13.8 mph 17.3 mph N/A   Scattered Clouds
4:15 PM 56.5 °F - 23.5 °F 28% 30.08 in 10.0 mi West 11.5 mph 23.0 mph N/A   Scattered Clouds
4:35 PM 58.3 °F - 23.9 °F 27% 30.08 in 10.0 mi West 12.7 mph 24.2 mph N/A   Mostly Cloudy
4:55 PM 55.4 °F - 24.3 °F 30% 30.08 in 10.0 mi West 8.1 mph - N/A   Mostly Cloudy
5:15 PM 55.0 °F - 23.2 °F 29% 30.08 in 10.0 mi West 11.5 mph - N/A   Mostly Cloudy
5:35 PM 53.8 °F - 24.4 °F 32% 30.08 in 10.0 mi WNW 10.4 mph 17.3 mph N/A   Mostly Cloudy
5:55 PM 54.0 °F - 24.3 °F 32% 30.09 in 10.0 mi West 9.2 mph 25.3 mph N/A   Mostly Cloudy
6:15 PM 52.7 °F - 25.2 °F 34% 30.10 in 10.0 mi WSW 15.0 mph 23.0 mph N/A   Mostly Cloudy
6:35 PM 50.2 °F - 28.8 °F 44% 30.09 in 10.0 mi West 15.0 mph 23.0 mph N/A   Overcast
6:55 PM 50.9 °F - 25.7 °F 38% 30.08 in 10.0 mi WSW 9.2 mph 17.3 mph N/A   Overcast
7:15 PM 50.4 °F - 24.1 °F 36% 30.09 in 10.0 mi WSW 6.9 mph - N/A   Mostly Cloudy
7:35 PM 48.4 °F - 25.5 °F 41% 30.10 in 10.0 mi SW 6.9 mph - N/A   Clear
7:55 PM 46.4 °F 43.5 °F 26.1 °F 45% 30.10 in 10.0 mi SW 5.8 mph - N/A   Clear
8:15 PM 43.5 °F 41.9 °F 26.6 °F 51% 30.11 in 10.0 mi East 3.5 mph - N/A   Clear
8:35 PM 41.2 °F - 26.8 °F 57% 30.11 in 10.0 mi Calm Calm - N/A   Clear
8:55 PM 37.4 °F 33.8 °F 26.8 °F 66% 30.11 in 10.0 mi WSW 4.6 mph - N/A   Clear
9:15 PM 35.2 °F - 26.6 °F 71% 30.12 in 10.0 mi Calm Calm - N/A   Clear
9:35 PM 36.5 °F - 26.6 °F 67% 30.13 in 10.0 mi Calm Calm - N/A   Clear
9:55 PM 35.2 °F - 26.4 °F 70% 30.13 in 10.0 mi Calm Calm - N/A   Clear
10:15 PM 35.2 °F - 26.6 °F 71% 30.13 in 10.0 mi Calm Calm - N/A   Clear
10:35 PM 33.4 °F - 27.3 °F 78% 30.12 in 10.0 mi Calm Calm - N/A   Clear
10:55 PM 33.6 °F - 27.3 °F 78% 30.13 in 10.0 mi Calm Calm - N/A   Scattered Clouds
11:15 PM 35.1 °F 32.2 °F 28.8 °F 78% 30.13 in 10.0 mi South 3.5 mph - N/A   Mostly Cloudy
11:35 PM 35.6 °F - 28.4 °F 75% 30.12 in 10.0 mi Calm Calm - N/A   Mostly Cloudy
11:55 PM 37.2 °F - 28.2 °F 70% 30.12 in 10.0 mi Calm Calm - N/A   Mostly Cloudy